Regional Weather Roundup
Issued by NWS

Home | Current Version | Previous Version | Graphics & Text | Print | Product List | Glossary On
Versions: 1 2 3 4 5 6 7 8 9 10 11 12 13 14 15 16 17 18 19 20 21 22 23 24 25 26 27 28 29 30 31 32 33 34 35 36 37 38 39 40 41 42 43 44 45 46 47 48 49 50
915
ASUS44 KMEG 272210
RWRTN
TENNESSEE HOURLY STATE WEATHER ROUNDUP
NATIONAL WEATHER SERVICE MEMPHIS TN
500 PM CDT FRI MAY 27 2016

TNZ002-004-019-021-049-052-054-088>092-272300-
WEST TENNESSEE

CITY           SKY/WX    TMP DP  RH WIND       PRES   REMARKS
MEMPHIS INTL   CLOUDY    82  67  60 S15       29.86F
NWS MEMPHIS      N/A     81 N/A N/A MISG        N/A
JACKSON        MOSUNNY   80  64  58 S9G17     29.90F
DYERSBURG      CLOUDY    79  66  65 S5        29.88S
UNION CITY     MOSUNNY   79  70  73 SE13      29.88F
PARIS          SUNNY     77  64  65 S10       29.93S
LEXINGTON      SUNNY     82  66  57 S7        29.92S
$$

TNZ008-025-027-028-033-062-065-066-272300-
NORTH MIDDLE TENNESSEE

CITY           SKY/WX    TMP DP  RH WIND       PRES   REMARKS
NASHVILLE      CLOUDY    85  62  46 SW7       29.94F
CLARKSVILLE    SUNNY     82  65  56 S12       29.93F
SMYRNA         MOSUNNY   90  63  40 SE12      29.94F HX  91
COOKEVILLE     MOSUNNY   79  72  78 NW3       29.98F
CROSSVILLE     LGT RAIN  74  68  81 E5        30.05F
$$

TNZ061-075-076-078-094-096-097-272300-
SOUTH MIDDLE TENNESSEE

CITY           SKY/WX    TMP DP  RH WIND       PRES   REMARKS
FAYETTEVILLE   SUNNY     86  63  45 S9G16     29.96F
TULLAHOMA      SUNNY     86  61  42 S10       29.98F
WINCHESTER     MOSUNNY   88  61  40 S10       29.97F
MCMINNVILLE    SUNNY     82  70  65 SE3       29.98F
COLUMBIA       SUNNY     82  68  61 S9        29.94S
SHELBYVILLE    MOSUNNY   90  64  43 SE10      29.96F HX  91
$$

TNZ017-018-042-046-047-272300-
NORTHEAST TENNESSEE

CITY           SKY/WX    TMP DP  RH WIND       PRES   REMARKS
TRI CITIES     TSTM      69  66  90 NW5       30.09R FOG
$$

TNZ012-013-036-069-073-074-272300-
CENTRAL EAST TENNESSEE

CITY           SKY/WX    TMP DP  RH WIND       PRES   REMARKS
KNOXVILLE      CLOUDY    74  68  81 SE5       30.04F
OAK RIDGE      CLOUDY    75  67  76 CALM      30.05F
GATLINBURG     SUNNY     77  64  65 SW6       30.05F
$$

TNZ083-085-099-272300-
SOUTHEAST TENNESSEE

CITY           SKY/WX    TMP DP  RH WIND       PRES   REMARKS
CHATTANOOGA    PTSUNNY   86  62  44 SE12      29.99F
$$

SKY/WX REPORTED AS FAIR MEANS FEW OR NO CLOUDS BELOW
12 THOUSAND FEET.





USA.gov is the U.S. government's official web portal to all federal, state and local government web resources and services.